Location: Peace River
(56.2330°N, 117.2830°W)
Time: 09:49:08
(UTC-06:00)

ISS - Visible Passes

Search period start: 20 May 2018 00:00
Search period end: 30 May 2018 00:00
Orbit: 402 x 407 km, 51.6° (Epoch: 21 May)

Date Brightness Start Highest point End Pass type
(mag) Time Alt. Az. Time Alt. Az. Time Alt. Az.
20 May -3.1 01:21:28 25° SSW 01:22:29 30° SSE 01:25:24 10° ESE visible
20 May -3.2 02:55:31 10° WSW 02:58:33 35° S 03:01:34 10° ESE visible
20 May -2.3 04:32:05 10° WSW 04:34:29 19° SSW 04:36:51 10° SSE visible
21 May -2.8 00:27:42 10° SW 00:30:27 25° SSE 00:33:13 10° ESE visible
21 May -3.3 02:03:26 10° WSW 02:06:29 36° S 02:09:32 10° ESE visible
21 May -2.7 03:39:47 10° WSW 03:42:30 24° SSW 03:45:13 10° SE visible
21 May -2.5 23:36:00 10° SSW 23:38:28 20° SSE 23:40:56 10° ESE visible
22 May -3.3 01:11:24 10° WSW 01:14:26 35° S 01:17:27 10° ESE visible
22 May -3.0 02:47:35 10° WSW 02:50:29 29° SSW 02:53:23 10° SE visible
22 May -1.9 04:24:50 10° WSW 04:26:15 12° SSW 04:27:40 10° S visible
23 May -3.1 00:19:23 10° SW 00:22:21 32° S 00:25:19 10° ESE visible
23 May -3.2 01:55:25 10° WSW 01:58:25 34° S 02:01:25 10° ESE visible
23 May -2.3 03:32:06 10° WSW 03:34:19 17° SSW 03:36:31 10° SSE visible
23 May -2.9 23:27:28 10° SW 23:30:17 27° SSE 23:33:08 10° ESE visible
24 May -3.3 01:03:17 10° WSW 01:06:20 36° S 01:09:23 10° ESE visible
24 May -2.6 02:39:42 10° WSW 02:42:19 22° SSW 02:42:41 22° SSW visible
25 May -3.3 00:11:11 10° WSW 00:14:14 36° S 00:17:17 10° ESE visible
25 May -2.9 01:47:26 10° WSW 01:50:16 27° SSW 01:51:11 24° SSE visible
25 May -3.1 23:19:07 10° WSW 23:22:07 33° S 23:25:07 10° ESE visible
26 May -3.1 00:55:13 10° WSW 00:58:11 32° S 01:00:12 17° SE visible
26 May -1.7 02:32:02 10° WSW 02:32:48 13° SW 02:32:48 13° SW visible
27 May -3.2 00:03:01 10° WSW 00:06:04 36° S 00:09:06 10° ESE visible
27 May -2.4 01:39:31 10° WSW 01:42:00 20° SSW 01:42:00 20° SSW visible
28 May -2.7 00:47:10 10° WSW 00:49:57 26° SSW 00:51:16 19° SSE visible
28 May -2.9 23:54:54 10° WSW 23:57:50 31° SSW 00:00:35 11° SE visible
29 May -1.7 01:31:55 10° WSW 01:33:12 13° SW 01:33:12 13° SW visible
